HAZ9841 ZGGG-ZLXN

Flight info

Callsign HAZ9841
Flight time 3h 12m
Altitude 38100
Route AGVIL W24 OSNOV G586 QP B330 ELKAL W179 OMBON W195 UPKOD W565 DNC W191 PANRA
Aircraft B739/M-SADE1E2E3GHIJ1J3J5M1P2RWXY/LB2D1

Departure

Time 2026-05-04 04:10
Airport Guangzhou Baiyun International Airport (ZGGG)

Arrival

Time 2026-05-04 07:22
Airport Xining Caojiabao International Airport (ZLXN)
Time Latitude Longitude Altitude Speed Heading
2026-05-04 02:55 23.39441 113.29362 53 ft 0 kts 194°
2026-05-04 03:52 23.39444 113.29363 53 ft 2 kts 195°
2026-05-04 03:52 23.39458 113.29367 53 ft 2 kts 194°
2026-05-04 03:53 23.39473 113.29371 53 ft 2 kts 195°
2026-05-04 03:53 23.39487 113.29376 53 ft 2 kts 194°
2026-05-04 03:53 23.39500 113.29378 53 ft 1 kts 209°
2026-05-04 03:53 23.39506 113.29387 53 ft 1 kts 266°
2026-05-04 03:54 23.39504 113.29394 53 ft 1 kts 290°
2026-05-04 03:54 23.39503 113.29398 53 ft 0 kts 284°
2026-05-04 04:00 23.39512 113.29363 53 ft 0 kts 285°
2026-05-04 04:01 23.39512 113.29362 53 ft 1 kts 285°
2026-05-04 04:01 23.39518 113.29337 53 ft 5 kts 284°
2026-05-04 04:01 23.39530 113.29289 53 ft 8 kts 283°
2026-05-04 04:01 23.39534 113.29263 53 ft 2 kts 275°
2026-05-04 04:02 23.39534 113.29246 53 ft 0 kts 271°
2026-05-04 04:02 23.39534 113.29245 53 ft 0 kts 268°
2026-05-04 04:02 23.39525 113.29229 53 ft 4 kts 226°
2026-05-04 04:03 23.39486 113.29207 53 ft 9 kts 199°
2026-05-04 04:03 23.39394 113.29180 53 ft 17 kts 193°
2026-05-04 04:03 23.39275 113.29149 53 ft 16 kts 193°
2026-05-04 04:03 23.39190 113.29085 53 ft 14 kts 246°
2026-05-04 04:04 23.39126 113.29020 53 ft 12 kts 200°
2026-05-04 04:04 23.39051 113.28998 53 ft 10 kts 194°
2026-05-04 04:04 23.38979 113.28978 53 ft 3 kts 194°
2026-05-04 04:04 23.38978 113.28978 53 ft 0 kts 194°
2026-05-04 04:05 23.38940 113.28964 53 ft 12 kts 210°
2026-05-04 04:05 23.38863 113.28859 53 ft 24 kts 204°
2026-05-04 04:05 23.38725 113.28819 53 ft 13 kts 193°
2026-05-04 04:05 23.38624 113.28793 53 ft 16 kts 194°
2026-05-04 04:06 23.38497 113.28759 53 ft 20 kts 194°
2026-05-04 04:06 23.38343 113.28719 53 ft 24 kts 193°
2026-05-04 04:06 23.38186 113.28676 53 ft 22 kts 194°
2026-05-04 04:06 23.38043 113.28635 53 ft 20 kts 194°
2026-05-04 04:07 23.37912 113.28601 53 ft 18 kts 194°
2026-05-04 04:07 23.37806 113.28572 53 ft 6 kts 193°
2026-05-04 04:07 23.37761 113.28560 53 ft 8 kts 193°
2026-05-04 04:07 23.37693 113.28535 53 ft 12 kts 220°
2026-05-04 04:08 23.37684 113.28435 53 ft 15 kts 284°
2026-05-04 04:08 23.37768 113.28371 53 ft 11 kts
2026-05-04 04:08 23.37776 113.28372 53 ft 0 kts 10°
2026-05-04 04:09 23.37885 113.28401 53 ft 49 kts 14°
2026-05-04 04:09 23.38473 113.28561 54 ft 120 kts 15°
2026-05-04 04:09 23.39489 113.28833 95 ft 173 kts 15°
2026-05-04 04:10 23.40581 113.29165 1005 ft 156 kts 18°
2026-05-04 04:10 23.41576 113.29437 1751 ft 151 kts 12°
2026-05-04 04:10 23.42643 113.29565 2160 ft 160 kts
2026-05-04 04:10 23.43826 113.29562 2495 ft 178 kts
2026-05-04 04:11 23.45104 113.29427 2919 ft 193 kts 355°
2026-05-04 04:11 23.46464 113.29092 3354 ft 207 kts 346°
2026-05-04 04:11 23.47890 113.28545 3729 ft 227 kts 340°
2026-05-04 04:11 23.49427 113.27876 4182 ft 244 kts 339°
2026-05-04 04:12 23.51017 113.27182 4821 ft 250 kts 339°
2026-05-04 04:12 23.52641 113.26492 5532 ft 254 kts 338°
2026-05-04 04:12 23.54332 113.25875 5868 ft 260 kts 341°
2026-05-04 04:12 23.56084 113.25344 5902 ft 259 kts 344°
2026-05-04 04:13 23.57835 113.24830 5900 ft 256 kts 341°
2026-05-04 04:13 23.59440 113.24054 5889 ft 253 kts 321°
2026-05-04 04:13 23.60693 113.22705 5890 ft 251 kts 307°
2026-05-04 04:13 23.61780 113.21207 5896 ft 252 kts 306°
2026-05-04 04:14 23.62886 113.19731 5897 ft 253 kts 308°
2026-05-04 04:14 23.64037 113.18278 5909 ft 252 kts 310°
2026-05-04 04:14 23.65219 113.16845 5907 ft 254 kts 310°
2026-05-04 04:14 23.66390 113.15420 5894 ft 252 kts 309°
2026-05-04 04:15 23.67559 113.13981 5904 ft 252 kts 309°
2026-05-04 04:15 23.68755 113.12506 6291 ft 263 kts 309°
2026-05-04 04:15 23.69922 113.11068 7269 ft 253 kts 308°
2026-05-04 04:15 23.71079 113.09644 8031 ft 251 kts 308°
2026-05-04 04:16 23.72229 113.08225 8724 ft 252 kts 307°
2026-05-04 04:16 23.73309 113.06757 9470 ft 248 kts 300°
2026-05-04 04:16 23.74173 113.05164 10149 ft 246 kts 294°
2026-05-04 04:16 23.74960 113.03505 10797 ft 247 kts 294°
2026-05-04 04:17 23.75764 113.01822 11442 ft 249 kts 294°
2026-05-04 04:17 23.76595 113.00182 12080 ft 249 kts 296°
2026-05-04 04:17 23.77551 112.98593 12671 ft 254 kts 306°
2026-05-04 04:17 23.78977 112.97433 13233 ft 266 kts 330°
2026-05-04 04:18 23.80772 112.96802 13796 ft 273 kts 339°
2026-05-04 04:18 23.82634 112.96293 14342 ft 276 kts 339°
2026-05-04 04:18 23.84503 112.95743 14809 ft 280 kts 337°
2026-05-04 04:18 23.86372 112.95147 15253 ft 285 kts 336°
2026-05-04 04:19 23.88290 112.94511 15757 ft 287 kts 336°
2026-05-04 04:19 23.90199 112.93875 16250 ft 290 kts 336°
2026-05-04 04:19 23.92130 112.93235 16725 ft 292 kts 336°
2026-05-04 04:19 23.94110 112.92580 17168 ft 296 kts 336°
2026-05-04 04:20 23.96086 112.91928 17603 ft 299 kts 335°
2026-05-04 04:20 23.98083 112.91250 18054 ft 302 kts 335°
2026-05-04 04:20 24.00090 112.90578 18485 ft 304 kts 335°
2026-05-04 04:20 24.02155 112.89932 18928 ft 307 kts 337°
2026-05-04 04:21 24.04194 112.89287 19331 ft 309 kts 335°
2026-05-04 04:21 24.06266 112.88590 19681 ft 313 kts 334°
2026-05-04 04:21 24.08359 112.87874 19726 ft 315 kts 334°
2026-05-04 04:21 24.10454 112.87163 19730 ft 312 kts 334°
2026-05-04 04:22 24.12523 112.86473 19726 ft 310 kts 334°
2026-05-04 04:22 24.14603 112.85780 19727 ft 307 kts 334°
2026-05-04 04:22 24.16656 112.85096 19790 ft 311 kts 336°
2026-05-04 04:22 24.18734 112.84423 19842 ft 314 kts 334°
2026-05-04 04:23 24.20878 112.83698 20035 ft 322 kts 334°
2026-05-04 04:23 24.22963 112.83000 20667 ft 315 kts 334°
2026-05-04 04:23 24.25077 112.82293 21025 ft 318 kts 333°
2026-05-04 04:23 24.27189 112.81582 21434 ft 318 kts 334°
2026-05-04 04:24 24.29321 112.80868 21850 ft 318 kts 333°
2026-05-04 04:24 24.31458 112.80151 22088 ft 324 kts 333°
2026-05-04 04:24 24.33630 112.79430 22427 ft 325 kts 333°
2026-05-04 04:24 24.35798 112.78706 22771 ft 327 kts 333°
2026-05-04 04:25 24.37964 112.77944 23022 ft 329 kts 332°
2026-05-04 04:25 24.40088 112.77045 23477 ft 321 kts 325°
2026-05-04 04:25 24.42004 112.75872 23758 ft 315 kts 316°
2026-05-04 04:25 24.43715 112.74419 24123 ft 308 kts 309°
2026-05-04 04:26 24.45257 112.72774 24368 ft 307 kts 304°
2026-05-04 04:26 24.46661 112.71013 24724 ft 304 kts 300°
2026-05-04 04:26 24.47849 112.69132 25079 ft 298 kts 293°
2026-05-04 04:26 24.48774 112.67133 25340 ft 296 kts 287°
2026-05-04 04:27 24.49507 112.65015 25619 ft 295 kts 282°
2026-05-04 04:27 24.50060 112.62886 25974 ft 291 kts 277°
2026-05-04 04:27 24.50376 112.60710 26356 ft 287 kts 272°
2026-05-04 04:27 24.50570 112.58540 26659 ft 287 kts 271°
2026-05-04 04:28 24.50767 112.56349 26821 ft 292 kts 272°
2026-05-04 04:28 24.50984 112.54118 26966 ft 297 kts 272°
2026-05-04 04:28 24.51199 112.51859 27116 ft 301 kts 272°
2026-05-04 04:28 24.51428 112.49558 27295 ft 305 kts 272°
2026-05-04 04:29 24.51662 112.47241 27605 ft 303 kts 272°
2026-05-04 04:29 24.51890 112.44986 28079 ft 297 kts 272°
2026-05-04 04:29 24.52109 112.42736 28485 ft 292 kts 271°
2026-05-04 04:29 24.52317 112.40535 28791 ft 290 kts 271°
2026-05-04 04:30 24.52529 112.38329 28955 ft 293 kts 271°
2026-05-04 04:30 24.52745 112.36101 29088 ft 296 kts 271°
2026-05-04 04:30 24.52955 112.33855 29235 ft 299 kts 270°
2026-05-04 04:30 24.53168 112.31574 29424 ft 301 kts 271°
2026-05-04 04:31 24.53387 112.29295 29614 ft 303 kts 271°
2026-05-04 04:31 24.53608 112.26975 29735 ft 307 kts 271°
2026-05-04 04:31 24.53829 112.24631 29909 ft 309 kts 271°
2026-05-04 04:31 24.54052 112.22283 30147 ft 309 kts 271°
2026-05-04 04:32 24.54278 112.19918 30393 ft 309 kts 271°
2026-05-04 04:32 24.54499 112.17595 30664 ft 308 kts 271°
2026-05-04 04:32 24.54718 112.15256 30972 ft 305 kts 270°
2026-05-04 04:32 24.54936 112.12948 31096 ft 308 kts 270°
2026-05-04 04:33 24.55379 112.08236 31308 ft 315 kts 270°
2026-05-04 04:33 24.55605 112.05825 31590 ft 313 kts 270°
2026-05-04 04:33 24.55827 112.03464 31793 ft 313 kts 270°
2026-05-04 04:34 24.56047 112.01101 31938 ft 315 kts 270°
2026-05-04 04:34 24.56271 111.98686 32037 ft 318 kts 270°
2026-05-04 04:34 24.56496 111.96282 32227 ft 319 kts 270°
2026-05-04 04:34 24.56725 111.93852 32482 ft 317 kts 270°
2026-05-04 04:35 24.56949 111.91464 32709 ft 316 kts 270°
2026-05-04 04:35 24.57172 111.89050 32828 ft 318 kts 270°
2026-05-04 04:35 24.57620 111.84183 33000 ft 324 kts 270°
2026-05-04 04:36 24.57848 111.81702 33128 ft 326 kts 270°
2026-05-04 04:36 24.58077 111.79223 33323 ft 326 kts 270°
2026-05-04 04:36 24.58308 111.76736 33479 ft 327 kts 270°
2026-05-04 04:36 24.58537 111.74271 33654 ft 327 kts 270°
2026-05-04 04:37 24.59224 111.66774 34118 ft 329 kts 270°
2026-05-04 04:37 24.59455 111.64229 34180 ft 331 kts 271°
2026-05-04 04:38 24.59911 111.59187 34299 ft 336 kts 271°
2026-05-04 04:38 24.60379 111.54031 34509 ft 339 kts 271°
2026-05-04 04:39 24.60613 111.51449 34627 ft 340 kts 271°
2026-05-04 04:39 24.60846 111.48869 34755 ft 340 kts 271°
2026-05-04 04:39 24.61317 111.43673 34930 ft 343 kts 271°
2026-05-04 04:40 24.61553 111.41050 35076 ft 343 kts 271°
2026-05-04 04:40 24.61786 111.38448 35177 ft 344 kts 271°
2026-05-04 04:40 24.62252 111.33209 35365 ft 347 kts 271°
2026-05-04 04:41 24.62488 111.30575 35497 ft 348 kts 271°
2026-05-04 04:41 24.62724 111.27918 35619 ft 349 kts 271°
2026-05-04 04:41 24.63184 111.22610 35854 ft 350 kts 271°
2026-05-04 04:42 24.63415 111.19935 36011 ft 350 kts 271°
2026-05-04 04:42 24.63644 111.17270 36123 ft 351 kts 272°
2026-05-04 04:42 24.64102 111.11929 36333 ft 353 kts 272°
2026-05-04 04:43 24.64330 111.09244 36454 ft 354 kts 272°
2026-05-04 04:43 24.64560 111.06538 36528 ft 355 kts 272°
2026-05-04 04:43 24.65026 111.01092 36698 ft 357 kts 272°
2026-05-04 04:44 24.65495 110.95641 36848 ft 360 kts 272°
2026-05-04 04:44 24.65963 110.90180 36991 ft 362 kts 272°
2026-05-04 04:45 24.66442 110.84628 37089 ft 369 kts 274°
2026-05-04 04:47 24.75897 110.66997 37514 ft 419 kts 313°
2026-05-04 04:47 24.78143 110.64973 37790 ft 417 kts 313°
2026-05-04 04:47 24.80377 110.62936 38005 ft 416 kts 312°
2026-05-04 04:47 24.82567 110.60876 38202 ft 414 kts 311°
2026-05-04 04:48 24.84733 110.58770 38248 ft 413 kts 310°
2026-05-04 04:49 24.95144 110.48048 38257 ft 409 kts 309°
2026-05-04 04:49 24.99255 110.43702 38250 ft 410 kts 309°
2026-05-04 04:50 25.03359 110.39361 38243 ft 408 kts 309°
2026-05-04 04:50 25.07436 110.35055 38246 ft 409 kts 309°
2026-05-04 04:51 25.11566 110.30688 38248 ft 409 kts 309°
2026-05-04 04:51 25.15663 110.26363 38245 ft 406 kts 308°
2026-05-04 04:52 25.19744 110.22039 38241 ft 408 kts 309°
2026-05-04 04:52 25.23828 110.17733 38240 ft 408 kts 309°
2026-05-04 04:53 25.27959 110.13412 38245 ft 406 kts 309°
2026-05-04 04:53 25.32078 110.09104 38249 ft 407 kts 309°
2026-05-04 04:54 25.36201 110.04783 38250 ft 408 kts 309°
2026-05-04 04:54 25.40302 110.00479 38252 ft 407 kts 309°
2026-05-04 04:55 25.44418 109.96154 38299 ft 409 kts 309°
2026-05-04 04:55 25.48533 109.91820 38519 ft 409 kts 309°
2026-05-04 04:56 25.50619 109.89624 38634 ft 409 kts 309°
2026-05-04 04:56 25.52675 109.87458 38696 ft 409 kts 309°
2026-05-04 04:56 25.56833 109.83071 38602 ft 415 kts 309°
2026-05-04 04:57 25.61030 109.78635 38712 ft 415 kts 309°
2026-05-04 04:57 25.65237 109.74192 38657 ft 418 kts 309°
2026-05-04 04:58 25.69474 109.69712 38696 ft 418 kts 309°
2026-05-04 04:58 25.71580 109.67490 38908 ft 415 kts 309°
2026-05-04 04:58 25.73687 109.65263 38893 ft 416 kts 309°
2026-05-04 04:59 25.75669 109.62929 38743 ft 414 kts 303°
2026-05-04 04:59 25.77317 109.60315 38680 ft 407 kts 294°
2026-05-04 04:59 25.79415 109.54656 38963 ft 395 kts 284°
2026-05-04 05:00 25.80214 109.51746 39158 ft 391 kts 283°
2026-05-04 05:00 25.80964 109.48850 39302 ft 389 kts 283°
2026-05-04 05:01 25.83205 109.40126 39129 ft 396 kts 283°
2026-05-04 05:01 25.83969 109.37189 39022 ft 398 kts 283°
2026-05-04 05:01 25.84729 109.34280 39094 ft 396 kts 283°
2026-05-04 05:01 25.85493 109.31364 39312 ft 393 kts 283°
2026-05-04 05:02 25.86258 109.28439 39438 ft 392 kts 283°
2026-05-04 05:02 25.87789 109.22573 39258 ft 398 kts 283°
2026-05-04 05:03 25.89320 109.16711 39371 ft 396 kts 283°
2026-05-04 05:03 25.90086 109.13779 39579 ft 393 kts 283°
2026-05-04 05:04 25.92378 109.04983 39396 ft 398 kts 283°
2026-05-04 05:04 25.93927 108.99102 39438 ft 397 kts 284°
2026-05-04 05:06 25.99388 108.78572 39568 ft 396 kts 284°
2026-05-04 05:06 26.00164 108.75639 39260 ft 397 kts 284°
2026-05-04 05:06 26.00944 108.72689 38724 ft 392 kts 283°
2026-05-04 05:07 26.01694 108.69862 38322 ft 384 kts 283°
2026-05-04 05:07 26.03199 108.64217 38306 ft 379 kts 283°
2026-05-04 05:09 26.09305 108.41244 38320 ft 397 kts 285°
2026-05-04 05:09 26.10261 108.38374 38331 ft 400 kts 289°
2026-05-04 05:10 26.12600 108.32722 38328 ft 405 kts 291°
2026-05-04 05:10 26.15091 108.27093 38329 ft 407 kts 291°
2026-05-04 05:11 26.17593 108.21406 38337 ft 408 kts 291°
2026-05-04 05:11 26.20053 108.15753 38344 ft 409 kts 291°
2026-05-04 05:12 26.22521 108.10053 38344 ft 409 kts 291°
2026-05-04 05:12 26.24989 108.04333 38342 ft 409 kts 291°
2026-05-04 05:13 26.27448 107.98613 38337 ft 409 kts 291°
2026-05-04 05:13 26.29886 107.92933 38354 ft 409 kts 291°
2026-05-04 05:14 26.32337 107.87215 38347 ft 409 kts 291°
2026-05-04 05:14 26.34790 107.81485 38339 ft 409 kts 291°
2026-05-04 05:15 26.37231 107.75780 38345 ft 409 kts 292°
2026-05-04 05:15 26.39672 107.70067 38350 ft 409 kts 291°
2026-05-04 05:16 26.42102 107.64375 38349 ft 409 kts 291°
2026-05-04 05:16 26.44536 107.58662 38359 ft 408 kts 292°
2026-05-04 05:17 26.46960 107.52962 38361 ft 408 kts 292°
2026-05-04 05:17 26.49394 107.47225 38373 ft 408 kts 292°
2026-05-04 05:18 26.51804 107.41533 38371 ft 408 kts 292°
2026-05-04 05:18 26.54226 107.35813 38368 ft 408 kts 292°
2026-05-04 05:19 26.56654 107.30072 38368 ft 408 kts 292°
2026-05-04 05:19 26.59070 107.24364 38384 ft 408 kts 292°
2026-05-04 05:20 26.61495 107.18623 38386 ft 408 kts 292°
2026-05-04 05:20 26.63909 107.12907 38375 ft 408 kts 292°
2026-05-04 05:21 26.66332 107.07196 38387 ft 407 kts 292°
2026-05-04 05:21 26.68757 107.01496 38391 ft 407 kts 292°
2026-05-04 05:22 26.71190 106.95767 38392 ft 407 kts 292°
2026-05-04 05:22 26.73620 106.90030 38389 ft 407 kts 292°
2026-05-04 05:23 26.76023 106.84349 38397 ft 407 kts 292°
2026-05-04 05:23 26.78722 106.78773 38400 ft 410 kts 301°
2026-05-04 05:24 26.82587 106.74001 38408 ft 418 kts 311°
2026-05-04 05:24 26.86950 106.69724 38371 ft 416 kts 314°
2026-05-04 05:25 26.89139 106.67651 38375 ft 404 kts 314°
2026-05-04 05:25 26.91237 106.65663 38369 ft 395 kts 313°
2026-05-04 05:25 26.95421 106.61639 38360 ft 397 kts 313°
2026-05-04 05:26 26.99622 106.57536 38373 ft 400 kts 313°
2026-05-04 05:26 27.03818 106.53423 38368 ft 399 kts 313°
2026-05-04 05:28 27.20494 106.36996 38367 ft 398 kts 313°
2026-05-04 05:29 27.24659 106.32925 38365 ft 398 kts 313°
2026-05-04 05:29 27.28840 106.28870 38362 ft 397 kts 313°
2026-05-04 05:31 27.45522 106.12608 38349 ft 395 kts 313°
2026-05-04 05:32 27.49654 106.08566 38347 ft 395 kts 313°
2026-05-04 05:33 27.55872 106.02476 38340 ft 395 kts 313°
2026-05-04 05:33 27.60019 105.98408 38332 ft 394 kts 313°
2026-05-04 05:34 27.64146 105.94360 38331 ft 394 kts 313°
2026-05-04 05:34 27.68273 105.90300 38323 ft 394 kts 313°
2026-05-04 05:35 27.72058 105.85875 38317 ft 386 kts 301°
2026-05-04 05:35 27.74503 105.80571 38324 ft 382 kts 289°
2026-05-04 05:36 27.76189 105.74926 38319 ft 380 kts 286°
2026-05-04 05:36 27.77739 105.69244 38318 ft 380 kts 286°
2026-05-04 05:37 27.79306 105.63534 38319 ft 382 kts 287°
2026-05-04 05:37 27.81112 105.57881 38319 ft 382 kts 291°
2026-05-04 05:38 27.84349 105.49691 38317 ft 383 kts 292°
2026-05-04 05:38 27.86512 105.44209 38323 ft 381 kts 292°
2026-05-04 05:39 27.89784 105.35982 38354 ft 381 kts 294°
2026-05-04 05:40 27.93446 105.27870 38386 ft 390 kts 295°
2026-05-04 05:40 27.95956 105.22351 38386 ft 396 kts 296°
2026-05-04 05:41 27.99123 105.17195 38379 ft 403 kts 310°
2026-05-04 05:41 28.03586 105.13286 38370 ft 412 kts 321°
2026-05-04 05:42 28.08496 105.09853 38365 ft 413 kts 322°
2026-05-04 05:42 28.13441 105.06480 38359 ft 414 kts 322°
2026-05-04 05:43 28.18336 105.03102 38368 ft 414 kts 322°
2026-05-04 05:45 28.37912 104.89410 38340 ft 411 kts 321°
2026-05-04 05:47 28.57451 104.75736 38309 ft 413 kts 322°
2026-05-04 05:47 28.62338 104.72311 38305 ft 412 kts 322°
2026-05-04 05:48 28.67210 104.68890 38302 ft 413 kts 322°
2026-05-04 05:48 28.72118 104.65440 38299 ft 412 kts 322°
2026-05-04 05:49 28.77008 104.62000 38297 ft 412 kts 322°
2026-05-04 05:49 28.81896 104.58555 38297 ft 412 kts 322°
2026-05-04 05:51 29.01359 104.44721 38284 ft 412 kts 322°
2026-05-04 05:52 29.06221 104.41248 38274 ft 412 kts 322°
2026-05-04 05:52 29.11074 104.37780 38286 ft 412 kts 321°
2026-05-04 05:54 29.32028 104.27125 38286 ft 450 kts 354°
2026-05-04 05:55 29.38262 104.27907 38288 ft 456 kts 358°
2026-05-04 05:55 29.44596 104.29010 38297 ft 457 kts 359°
2026-05-04 05:56 29.50876 104.30135 38294 ft 459 kts 359°
2026-05-04 05:56 29.57168 104.31243 38300 ft 456 kts 359°
2026-05-04 05:57 29.63462 104.32332 38294 ft 457 kts 359°
2026-05-04 05:57 29.69758 104.33412 38291 ft 457 kts 359°
2026-05-04 05:58 29.76067 104.34493 38294 ft 458 kts 359°
2026-05-04 05:58 29.82375 104.35573 38286 ft 457 kts 359°
2026-05-04 05:59 29.88670 104.36652 38288 ft 457 kts 359°
2026-05-04 05:59 29.94927 104.37724 38284 ft 457 kts 359°
2026-05-04 06:00 30.01254 104.38809 38286 ft 457 kts 359°
2026-05-04 06:00 30.07537 104.39889 38286 ft 459 kts 359°
2026-05-04 06:01 30.13863 104.40976 38287 ft 458 kts 359°
2026-05-04 06:03 30.39055 104.45367 38293 ft 459 kts 359°
2026-05-04 06:05 30.61107 104.48553 38288 ft 440 kts 346°
2026-05-04 06:05 30.66983 104.47003 38289 ft 429 kts 335°
2026-05-04 06:06 30.72640 104.44798 38292 ft 429 kts 333°
2026-05-04 06:06 30.78272 104.42531 38291 ft 428 kts 334°
2026-05-04 06:07 30.83895 104.40335 38289 ft 428 kts 335°
2026-05-04 06:07 30.89824 104.38869 38293 ft 441 kts 346°
2026-05-04 06:08 30.96002 104.38512 38300 ft 447 kts 351°
2026-05-04 06:08 31.02195 104.38432 38299 ft 447 kts 351°
2026-05-04 06:09 31.08435 104.38356 38301 ft 446 kts 351°
2026-05-04 06:11 31.33141 104.37612 38309 ft 440 kts 349°
2026-05-04 06:13 31.57246 104.36160 38950 ft 414 kts 349°
2026-05-04 06:14 31.75148 104.35062 38670 ft 437 kts 349°
2026-05-04 06:14 31.78183 104.34888 38674 ft 437 kts 349°
2026-05-04 06:15 31.84211 104.34577 38694 ft 435 kts 350°
2026-05-04 06:15 31.90236 104.34286 38371 ft 422 kts 349°
2026-05-04 06:16 31.96141 104.33987 38370 ft 427 kts 350°
2026-05-04 06:16 32.02149 104.33671 38388 ft 432 kts 350°
2026-05-04 06:17 32.08182 104.33358 38394 ft 435 kts 350°
2026-05-04 06:17 32.14177 104.33057 38419 ft 422 kts 350°
2026-05-04 06:18 32.20030 104.32766 38257 ft 420 kts 350°
2026-05-04 06:20 32.43785 104.31522 38436 ft 433 kts 350°
2026-05-04 06:21 32.58906 104.30804 38428 ft 433 kts 350°
2026-05-04 06:22 32.64905 104.30522 38449 ft 431 kts 350°
2026-05-04 06:25 33.06976 104.28484 38505 ft 434 kts 351°
2026-05-04 06:26 33.12986 104.28194 38485 ft 432 kts 351°
2026-05-04 06:26 33.18977 104.27904 38452 ft 431 kts 351°
2026-05-04 06:27 33.34004 104.26884 38453 ft 427 kts 344°
2026-05-04 06:28 33.39534 104.24613 38447 ft 417 kts 329°
2026-05-04 06:28 33.44581 104.21293 38468 ft 415 kts 326°
2026-05-04 06:29 33.49591 104.17785 38463 ft 417 kts 326°
2026-05-04 06:29 33.54594 104.14313 38477 ft 416 kts 327°
2026-05-04 06:30 33.59925 104.11572 38493 ft 424 kts 342°
2026-05-04 06:30 33.65829 104.10968 38485 ft 423 kts 353°
2026-05-04 06:31 33.71733 104.11027 38460 ft 423 kts 354°
2026-05-04 06:31 33.77648 104.11114 38454 ft 428 kts 354°
2026-05-04 06:33 34.01810 104.11186 38393 ft 439 kts 354°
2026-05-04 06:34 34.07871 104.11192 38405 ft 437 kts 354°
2026-05-04 06:34 34.14022 104.11194 38416 ft 439 kts 354°
2026-05-04 06:36 34.38391 104.11195 38409 ft 438 kts 354°
2026-05-04 06:37 34.44493 104.11195 38411 ft 437 kts 354°
2026-05-04 06:37 34.50599 104.11195 38408 ft 439 kts 354°
2026-05-04 06:38 34.56690 104.11192 38393 ft 437 kts 354°
2026-05-04 06:40 34.81043 104.11194 38402 ft 438 kts 354°
2026-05-04 06:40 34.87151 104.11195 38409 ft 438 kts 354°
2026-05-04 06:41 34.93225 104.11192 38403 ft 438 kts 354°
2026-05-04 06:41 34.99309 104.11195 38394 ft 439 kts 354°
2026-05-04 06:42 35.05416 104.11192 38402 ft 437 kts 354°
2026-05-04 06:44 35.29864 104.11194 38368 ft 440 kts 355°
2026-05-04 06:44 35.35961 104.11192 38344 ft 441 kts 355°
2026-05-04 06:45 35.42099 104.11192 38322 ft 440 kts 355°
2026-05-04 06:45 35.48206 104.11192 38327 ft 442 kts 355°
2026-05-04 06:46 35.54342 104.11200 38312 ft 442 kts 355°
2026-05-04 06:46 35.60470 104.11229 38338 ft 440 kts 356°
2026-05-04 06:48 35.85084 104.11223 38289 ft 441 kts 353°
2026-05-04 06:50 36.09552 104.08427 38222 ft 441 kts 350°
2026-05-04 06:51 36.15440 104.06609 38207 ft 433 kts 334°
2026-05-04 06:51 36.20481 104.02618 38216 ft 431 kts 319°
2026-05-04 06:52 36.24448 103.97154 38215 ft 430 kts 302°
2026-05-04 06:52 36.26847 103.90376 38201 ft 432 kts 288°
2026-05-04 06:53 36.28245 103.83159 38228 ft 433 kts 283°
2026-05-04 06:53 36.29348 103.75822 38206 ft 425 kts 282°
2026-05-04 06:54 36.30386 103.68772 38196 ft 418 kts 283°
2026-05-04 06:54 36.31463 103.61678 38212 ft 422 kts 283°
2026-05-04 06:55 36.32555 103.54597 37746 ft 416 kts 283°
2026-05-04 06:55 36.33108 103.51044 36866 ft 424 kts 283°
2026-05-04 06:55 36.33662 103.47487 36149 ft 427 kts 283°
2026-05-04 06:56 36.34220 103.43890 35720 ft 423 kts 283°
2026-05-04 06:57 36.38117 103.18510 32269 ft 436 kts 281°
2026-05-04 06:58 36.38685 103.14778 31699 ft 439 kts 281°
2026-05-04 06:58 36.39243 103.11102 31142 ft 442 kts 281°
2026-05-04 06:58 36.39814 103.07336 30576 ft 445 kts 281°
2026-05-04 06:58 36.40379 103.03602 30019 ft 446 kts 281°
2026-05-04 06:59 36.40944 102.99857 29448 ft 441 kts 281°
2026-05-04 06:59 36.41498 102.96177 28885 ft 430 kts 281°
2026-05-04 06:59 36.42042 102.92551 28315 ft 420 kts 281°
2026-05-04 06:59 36.42565 102.89056 27755 ft 411 kts 281°
2026-05-04 07:01 36.46401 102.66435 23763 ft 361 kts 299°
2026-05-04 07:01 36.47711 102.63823 23174 ft 355 kts 306°
2026-05-04 07:02 36.49189 102.61414 22574 ft 351 kts 309°
2026-05-04 07:02 36.50821 102.59178 21976 ft 346 kts 316°
2026-05-04 07:02 36.52600 102.57172 21390 ft 342 kts 319°
2026-05-04 07:02 36.54406 102.55312 20816 ft 338 kts 321°
2026-05-04 07:03 36.56229 102.53481 20248 ft 334 kts 321°
2026-05-04 07:03 36.58003 102.51693 19702 ft 331 kts 320°
2026-05-04 07:03 36.59730 102.49785 19196 ft 326 kts 314°
2026-05-04 07:03 36.61047 102.47580 19054 ft 315 kts 299°
2026-05-04 07:04 36.61912 102.45163 19039 ft 298 kts 291°
2026-05-04 07:04 36.62574 102.42815 19037 ft 282 kts 290°
2026-05-04 07:04 36.63190 102.40488 19041 ft 282 kts 290°
2026-05-04 07:04 36.63805 102.38183 18959 ft 282 kts 290°
2026-05-04 07:05 36.64429 102.35890 18773 ft 272 kts 290°
2026-05-04 07:05 36.65033 102.33698 18590 ft 266 kts 290°
2026-05-04 07:05 36.65634 102.31531 18414 ft 268 kts 290°
2026-05-04 07:05 36.66250 102.29305 18223 ft 269 kts 290°
2026-05-04 07:06 36.67450 102.24955 17657 ft 264 kts 290°
2026-05-04 07:06 36.68037 102.22821 17363 ft 256 kts 290°
2026-05-04 07:06 36.68603 102.20763 17050 ft 248 kts 290°
2026-05-04 07:07 36.69162 102.18733 16734 ft 243 kts 289°
2026-05-04 07:08 36.72902 102.05112 14580 ft 227 kts 289°
2026-05-04 07:09 36.73404 102.03268 14270 ft 227 kts 288°
2026-05-04 07:09 36.73920 102.01372 13952 ft 230 kts 288°
2026-05-04 07:09 36.74429 101.99511 13640 ft 228 kts 288°
2026-05-04 07:09 36.74942 101.97633 13319 ft 228 kts 288°
2026-05-04 07:10 36.75447 101.95781 12999 ft 229 kts 288°
2026-05-04 07:10 36.75957 101.93909 12679 ft 228 kts 288°
2026-05-04 07:12 36.75363 101.81175 11588 ft 227 kts 242°
2026-05-04 07:12 36.74599 101.79470 11579 ft 227 kts 242°
2026-05-04 07:12 36.73823 101.77747 11579 ft 226 kts 242°
2026-05-04 07:12 36.73057 101.76054 11577 ft 227 kts 242°
2026-05-04 07:13 36.72273 101.74327 11582 ft 227 kts 242°
2026-05-04 07:13 36.71495 101.72636 11591 ft 227 kts 239°
2026-05-04 07:13 36.70485 101.71132 11592 ft 229 kts 219°
2026-05-04 07:14 36.64328 101.69201 11585 ft 234 kts 168°
2026-05-04 07:14 36.62908 101.70197 11583 ft 235 kts 136°
2026-05-04 07:15 36.62042 101.71827 11583 ft 216 kts 115°
2026-05-04 07:15 36.61525 101.73477 11594 ft 194 kts 110°
2026-05-04 07:15 36.61103 101.74969 11559 ft 177 kts 110°
2026-05-04 07:15 36.60699 101.76410 11421 ft 175 kts 110°
2026-05-04 07:16 36.60302 101.77840 11123 ft 175 kts 109°
2026-05-04 07:16 36.59915 101.79237 10887 ft 170 kts 109°
2026-05-04 07:16 36.59526 101.80639 10696 ft 173 kts 109°
2026-05-04 07:16 36.59138 101.82037 10438 ft 171 kts 109°
2026-05-04 07:17 36.58755 101.83417 10222 ft 168 kts 109°
2026-05-04 07:17 36.58375 101.84788 10000 ft 168 kts 109°
2026-05-04 07:17 36.57997 101.86150 9780 ft 167 kts 109°
2026-05-04 07:17 36.57618 101.87512 9558 ft 166 kts 109°
2026-05-04 07:18 36.57234 101.88889 9338 ft 167 kts 109°
2026-05-04 07:18 36.56857 101.90238 9119 ft 166 kts 109°
2026-05-04 07:18 36.56483 101.91592 8904 ft 165 kts 109°
2026-05-04 07:18 36.56108 101.92937 8693 ft 164 kts 110°
2026-05-04 07:19 36.55732 101.94282 8473 ft 164 kts 109°
2026-05-04 07:19 36.55360 101.95624 8266 ft 164 kts 109°
2026-05-04 07:19 36.54985 101.96963 8048 ft 164 kts 109°
2026-05-04 07:19 36.54613 101.98300 7836 ft 163 kts 109°
2026-05-04 07:20 36.54242 101.99631 7622 ft 164 kts 108°
2026-05-04 07:20 36.53869 102.00972 7382 ft 163 kts 109°
2026-05-04 07:20 36.53498 102.02274 7220 ft 154 kts 111°
2026-05-04 07:20 36.53172 102.03477 7211 ft 144 kts 111°
2026-05-04 07:22 36.52353 102.05869 7205 ft 30 kts 217°
2026-05-04 07:22 36.52342 102.05671 7205 ft 20 kts 246°
2026-05-04 07:23 36.52350 102.05511 7205 ft 17 kts 286°
2026-05-04 07:23 36.52319 102.05380 7205 ft 14 kts 259°
2026-05-04 07:23 36.52311 102.05260 7205 ft 12 kts 266°
2026-05-04 07:23 36.52307 102.05189 7205 ft 0 kts 266°